Year,Month,Day,Hour,Minute,Value (Times are PST for temperature in C)
2009,07,18,09,33,24.70
2009,07,18,09,34,24.70
2009,07,18,09,35,24.70
2009,07,18,09,36,24.60
2009,07,18,09,37,24.50
2009,07,18,09,38,24.50
2009,07,18,09,39,24.40
2009,07,18,09,40,24.10
2009,07,18,09,41,23.90
2009,07,18,09,42,23.80
2009,07,18,09,43,23.70
2009,07,18,09,44,23.40
2009,07,18,09,45,23.10
2009,07,18,09,46,22.80
2009,07,18,09,47,22.60
2009,07,18,09,48,22.40
2009,07,18,09,49,22.10
2009,07,18,09,50,21.90
2009,07,18,09,51,21.70
2009,07,18,09,52,21.60
2009,07,18,09,53,21.60
2009,07,18,09,54,21.60
2009,07,18,09,55,21.60
2009,07,18,09,56,21.70
2009,07,18,09,57,21.80
2009,07,18,09,58,21.70
2009,07,18,09,59,21.80
2009,07,18,10,00,21.80
2009,07,18,10,01,21.70
2009,07,18,10,02,21.50
2009,07,18,10,03,21.40
2009,07,18,10,04,21.40
2009,07,18,10,05,21.30
2009,07,18,10,06,21.20
2009,07,18,10,07,21.10
2009,07,18,10,08,21.10
2009,07,18,10,09,21.00
2009,07,18,10,10,20.90
2009,07,18,10,11,20.80
2009,07,18,10,12,20.90
2009,07,18,10,13,20.80
2009,07,18,10,14,20.70
2009,07,18,10,15,20.60
2009,07,18,10,16,20.30
2009,07,18,10,17,20.10
2009,07,18,10,18,20.10
2009,07,18,10,19,20.20
2009,07,18,10,20,20.20
2009,07,18,10,21,20.30
2009,07,18,10,22,20.40
2009,07,18,10,23,20.30
2009,07,18,10,24,20.30
2009,07,18,10,25,20.50
2009,07,18,10,26,20.50
2009,07,18,10,27,20.50
2009,07,18,10,28,20.50
2009,07,18,10,29,20.70
2009,07,18,10,30,20.80
2009,07,18,10,31,21.00
2009,07,18,10,32,21.20
2009,07,18,10,33,21.60
2009,07,18,10,34,21.90
2009,07,18,10,35,22.20
2009,07,18,10,36,22.40
2009,07,18,10,37,22.60
2009,07,18,10,38,22.50
2009,07,18,10,39,22.20
2009,07,18,10,40,21.80
2009,07,18,10,41,21.40
2009,07,18,10,42,21.00
2009,07,18,10,43,20.80
2009,07,18,10,44,20.80
2009,07,18,10,45,20.80
2009,07,18,10,46,20.80
2009,07,18,10,47,20.90
2009,07,18,10,48,20.90
2009,07,18,10,49,21.00
2009,07,18,10,50,21.10
2009,07,18,10,51,21.30
2009,07,18,10,52,21.50
2009,07,18,10,53,21.60
2009,07,18,10,54,21.80
2009,07,18,10,55,21.90
2009,07,18,10,56,22.10
2009,07,18,10,57,22.10
2009,07,18,10,58,22.30
2009,07,18,10,59,22.40
2009,07,18,11,00,22.50
2009,07,18,11,01,22.50
2009,07,18,11,02,22.40
2009,07,18,11,03,22.40
2009,07,18,11,04,22.30
2009,07,18,11,05,22.30
2009,07,18,11,06,22.30
2009,07,18,11,07,22.30
2009,07,18,11,08,22.30
2009,07,18,11,09,22.30
2009,07,18,11,10,22.40
2009,07,18,11,11,22.50
2009,07,18,11,12,22.70
2009,07,18,11,13,22.80
2009,07,18,11,14,22.80
2009,07,18,11,15,22.80
2009,07,18,11,16,22.70
2009,07,18,11,17,22.70
2009,07,18,11,18,22.70
2009,07,18,11,19,22.70
2009,07,18,11,20,22.60
2009,07,18,11,21,22.50
2009,07,18,11,22,22.50
2009,07,18,11,23,22.50
2009,07,18,11,24,22.40
2009,07,18,11,25,22.30
2009,07,18,11,26,22.20
2009,07,18,11,27,22.20
2009,07,18,11,28,22.30
2009,07,18,11,29,22.30
2009,07,18,11,30,22.40
2009,07,18,11,31,22.40
2009,07,18,11,32,22.50
2009,07,18,11,33,22.50
2009,07,18,11,34,22.60
2009,07,18,11,35,22.70
2009,07,18,11,36,22.80
2009,07,18,11,37,22.80
2009,07,18,11,38,22.50
2009,07,18,11,39,22.20
2009,07,18,11,40,22.00
2009,07,18,11,41,21.90
2009,07,18,11,42,21.90
2009,07,18,11,43,22.00
2009,07,18,11,44,22.10
2009,07,18,11,45,22.00
2009,07,18,11,46,21.80
2009,07,18,11,47,21.60
2009,07,18,11,48,21.50
2009,07,18,11,49,21.60
2009,07,18,11,50,21.60
2009,07,18,11,51,21.70
2009,07,18,11,52,21.80
2009,07,18,11,53,22.00
2009,07,18,11,54,22.20
2009,07,18,11,55,22.40
2009,07,18,11,56,22.50
2009,07,18,11,57,22.70
2009,07,18,11,58,22.80
2009,07,18,11,59,22.80
2009,07,18,12,00,22.80
2009,07,18,12,01,22.90
2009,07,18,12,02,22.90
2009,07,18,12,03,22.90
2009,07,18,12,04,22.90
2009,07,18,12,05,22.90
2009,07,18,12,06,22.90
2009,07,18,12,07,22.90
2009,07,18,12,08,22.90
2009,07,18,12,09,23.00
2009,07,18,12,10,23.00
2009,07,18,12,11,23.10
2009,07,18,12,12,23.10
2009,07,18,12,13,23.20
2009,07,18,12,14,23.20
2009,07,18,12,15,23.00
2009,07,18,12,16,22.70
2009,07,18,12,17,22.70
2009,07,18,12,18,22.70
2009,07,18,12,19,22.80
2009,07,18,12,20,22.80
2009,07,18,12,21,22.80
2009,07,18,12,22,22.90
2009,07,18,12,23,22.80
2009,07,18,12,24,22.80
2009,07,18,12,25,22.70
2009,07,18,12,26,22.60
2009,07,18,12,27,22.50
2009,07,18,12,28,22.40
2009,07,18,12,29,22.40
2009,07,18,12,30,22.40
2009,07,18,12,31,22.40
2009,07,18,12,32,22.50
2009,07,18,12,33,22.50
2009,07,18,12,34,22.60
2009,07,18,12,35,22.70
2009,07,18,12,36,22.70
2009,07,18,12,37,22.70
2009,07,18,12,38,22.60
2009,07,18,12,39,22.60
2009,07,18,12,40,22.60
2009,07,18,12,41,22.70
2009,07,18,12,42,22.80
2009,07,18,12,43,22.90
2009,07,18,12,44,23.00
2009,07,18,12,45,23.10
2009,07,18,12,46,23.20
2009,07,18,12,47,23.40
2009,07,18,12,48,23.50
2009,07,18,12,49,23.60
2009,07,18,12,50,23.70
2009,07,18,12,51,23.60
2009,07,18,12,52,23.60
2009,07,18,12,53,23.50
2009,07,18,12,54,23.40
2009,07,18,12,55,23.50
2009,07,18,12,56,23.60
2009,07,18,12,57,23.60
2009,07,18,12,58,23.70
2009,07,18,12,59,23.80
2009,07,18,13,00,23.90
2009,07,18,13,01,23.90
2009,07,18,13,02,23.90
2009,07,18,13,03,24.00
2009,07,18,13,04,24.10
2009,07,18,13,05,24.10
2009,07,18,13,06,24.10
2009,07,18,13,07,24.00
2009,07,18,13,08,23.90
2009,07,18,13,09,23.80
2009,07,18,13,10,23.70
2009,07,18,13,11,23.60
2009,07,18,13,12,23.60
2009,07,18,13,13,23.40
2009,07,18,13,14,23.40
2009,07,18,13,15,23.40
2009,07,18,13,16,23.30
2009,07,18,13,17,23.20
2009,07,18,13,18,23.20
2009,07,18,13,19,23.30
2009,07,18,13,20,23.40
2009,07,18,13,21,23.50
2009,07,18,13,22,23.60
2009,07,18,13,23,23.70
2009,07,18,13,24,23.70
2009,07,18,13,25,23.60
2009,07,18,13,26,23.60
2009,07,18,13,27,23.50
2009,07,18,13,28,23.40
2009,07,18,13,29,23.40
2009,07,18,13,30,23.40
2009,07,18,13,31,23.40
2009,07,18,13,32,23.50
2009,07,18,13,33,23.60
2009,07,18,13,34,23.60
2009,07,18,13,35,23.70
2009,07,18,13,36,23.70
2009,07,18,13,37,23.70
2009,07,18,13,38,23.70
2009,07,18,13,39,23.70
2009,07,18,13,40,23.80
2009,07,18,13,41,23.80
2009,07,18,13,42,23.90
2009,07,18,13,43,23.90
2009,07,18,13,44,23.90
2009,07,18,13,45,23.90
2009,07,18,13,46,24.00
2009,07,18,13,47,24.00
2009,07,18,13,48,23.90
2009,07,18,13,49,24.00
2009,07,18,13,50,23.90
2009,07,18,13,51,23.90
2009,07,18,13,52,23.70
2009,07,18,13,53,23.40
2009,07,18,13,54,23.30
2009,07,18,13,55,23.30
2009,07,18,13,56,23.30
2009,07,18,13,57,23.40
2009,07,18,13,58,23.50
2009,07,18,13,59,23.60
2009,07,18,14,00,23.80
2009,07,18,14,01,23.80
2009,07,18,14,02,23.80
2009,07,18,14,03,23.80
2009,07,18,14,04,23.80
2009,07,18,14,05,23.60
2009,07,18,14,06,23.20
2009,07,18,14,07,23.00
2009,07,18,14,08,22.90
2009,07,18,14,09,23.00
2009,07,18,14,10,23.10
2009,07,18,14,11,23.20
2009,07,18,14,12,23.30
2009,07,18,14,13,23.40
2009,07,18,14,14,23.50
2009,07,18,14,15,23.60
2009,07,18,14,16,23.70
2009,07,18,14,17,23.80
2009,07,18,14,18,23.90
2009,07,18,14,19,24.00
2009,07,18,14,20,24.10
2009,07,18,14,21,24.20
2009,07,18,14,22,24.20
2009,07,18,14,23,24.20
2009,07,18,14,24,24.20
2009,07,18,14,25,24.10
2009,07,18,14,26,24.00
2009,07,18,14,27,23.70
2009,07,18,14,28,23.40
2009,07,18,14,29,23.00
2009,07,18,14,30,22.80
2009,07,18,14,31,22.80
2009,07,18,14,32,22.70
2009,07,18,14,33,22.60
2009,07,18,14,34,22.50
2009,07,18,14,35,22.60
2009,07,18,14,36,22.70
2009,07,18,14,37,22.80
2009,07,18,14,38,22.90
2009,07,18,14,39,23.00
2009,07,18,14,40,23.10
2009,07,18,14,41,23.20
2009,07,18,14,42,23.30
2009,07,18,14,43,23.50
2009,07,18,14,44,23.60
2009,07,18,14,45,23.70
2009,07,18,14,46,23.80
2009,07,18,14,47,23.90
2009,07,18,14,48,23.90
2009,07,18,14,49,24.00
2009,07,18,14,50,24.10
2009,07,18,14,51,24.10
2009,07,18,14,52,24.10
2009,07,18,14,53,24.20
2009,07,18,14,54,24.40
2009,07,18,14,55,24.50
2009,07,18,14,56,24.60
2009,07,18,14,57,24.60
2009,07,18,14,58,24.70
2009,07,18,14,59,24.80
2009,07,18,15,00,24.90
2009,07,18,15,01,24.80
2009,07,18,15,02,24.80
2009,07,18,15,03,24.70
2009,07,18,15,04,24.70
2009,07,18,15,05,24.70
2009,07,18,15,06,24.50
2009,07,18,15,07,24.50
2009,07,18,15,08,24.50
2009,07,18,15,09,24.50
2009,07,18,15,10,24.60
2009,07,18,15,11,24.70
2009,07,18,15,12,24.80
2009,07,18,15,13,24.90
2009,07,18,15,14,25.00
2009,07,18,15,15,25.00
2009,07,18,15,16,24.80
2009,07,18,15,17,24.60
2009,07,18,15,18,24.40
2009,07,18,15,19,24.30
2009,07,18,15,20,24.10
2009,07,18,15,21,24.00
2009,07,18,15,22,23.80
2009,07,18,15,23,23.50
2009,07,18,15,24,23.40
2009,07,18,15,25,23.40
2009,07,18,15,26,23.40
2009,07,18,15,27,23.50
2009,07,18,15,28,23.60
2009,07,18,15,29,23.70
2009,07,18,15,30,23.70
2009,07,18,15,31,23.80
2009,07,18,15,32,23.90
2009,07,18,15,33,24.10
2009,07,18,15,34,24.20
2009,07,18,15,35,24.30
2009,07,18,15,36,24.30
2009,07,18,15,37,24.30
2009,07,18,15,38,24.40
2009,07,18,15,39,24.40
2009,07,18,15,40,24.30
2009,07,18,15,41,24.30
2009,07,18,15,42,24.30
2009,07,18,15,43,24.30
2009,07,18,15,44,24.30
2009,07,18,15,45,24.20
2009,07,18,15,46,24.20
2009,07,18,15,47,24.20
2009,07,18,15,48,24.20
2009,07,18,15,49,24.20
2009,07,18,15,50,24.20
2009,07,18,15,51,24.20
2009,07,18,15,52,24.20
2009,07,18,15,53,24.10
2009,07,18,15,54,24.10
2009,07,18,15,55,24.10
2009,07,18,15,56,24.00
2009,07,18,15,57,24.00
2009,07,18,15,58,23.90
2009,07,18,15,59,23.80
2009,07,18,16,00,23.70
2009,07,18,16,01,23.70
2009,07,18,16,02,23.60
2009,07,18,16,03,23.60
2009,07,18,16,04,23.60
2009,07,18,16,05,23.60
2009,07,18,16,06,23.60
2009,07,18,16,07,23.50
2009,07,18,16,08,23.40
2009,07,18,16,09,23.40
2009,07,18,16,10,23.40
2009,07,18,16,11,23.40
2009,07,18,16,12,23.40
2009,07,18,16,13,23.40
2009,07,18,16,14,23.40
2009,07,18,16,15,23.40
2009,07,18,16,16,23.40
2009,07,18,16,17,23.40
2009,07,18,16,18,23.40
2009,07,18,16,19,23.30
2009,07,18,16,20,23.30
2009,07,18,16,21,23.30
2009,07,18,16,22,23.30
2009,07,18,16,23,23.30
2009,07,18,16,24,23.40
2009,07,18,16,25,23.40
2009,07,18,16,26,23.40
2009,07,18,16,27,23.40
2009,07,18,16,28,23.40
2009,07,18,16,29,23.30
2009,07,18,16,30,23.30
2009,07,18,16,31,23.30
2009,07,18,16,32,23.40
2009,07,18,16,33,23.40
2009,07,18,16,34,23.50
2009,07,18,16,35,23.60
2009,07,18,16,36,23.60
2009,07,18,16,37,23.70
2009,07,18,16,38,23.60
2009,07,18,16,39,23.50
2009,07,18,16,40,23.40
2009,07,18,16,41,23.30
2009,07,18,16,42,23.30
2009,07,18,16,43,23.30
2009,07,18,16,44,23.30
2009,07,18,16,45,23.10
2009,07,18,16,46,23.00
2009,07,18,16,47,22.90
2009,07,18,16,48,22.80
2009,07,18,16,49,22.80
2009,07,18,16,50,22.70
2009,07,18,16,51,22.70
2009,07,18,16,52,22.80
2009,07,18,16,53,22.80
2009,07,18,16,54,22.80
2009,07,18,16,55,22.80
2009,07,18,16,56,22.80
2009,07,18,16,57,22.90
2009,07,18,16,58,22.90
2009,07,18,16,59,23.10
2009,07,18,17,00,23.20
2009,07,18,17,01,23.40
2009,07,18,17,02,23.50
2009,07,18,17,03,23.50
2009,07,18,17,04,23.40
2009,07,18,17,05,23.30
2009,07,18,17,06,23.20
2009,07,18,17,07,23.20
2009,07,18,17,08,23.30
2009,07,18,17,09,23.30
2009,07,18,17,10,23.40
2009,07,18,17,11,23.50
2009,07,18,17,12,23.60
2009,07,18,17,13,23.70
2009,07,18,17,14,23.80
2009,07,18,17,15,23.90
2009,07,18,17,16,24.00
2009,07,18,17,17,24.10
2009,07,18,17,18,24.10
2009,07,18,17,19,24.10
2009,07,18,17,20,24.10
2009,07,18,17,21,24.00
2009,07,18,17,22,23.90
2009,07,18,17,23,23.80
2009,07,18,17,24,23.70
2009,07,18,17,25,23.60
2009,07,18,17,26,23.60
2009,07,18,17,27,23.60
2009,07,18,17,28,23.60
2009,07,18,17,29,23.50
2009,07,18,17,30,23.40
2009,07,18,17,31,23.30
2009,07,18,17,32,23.30
2009,07,18,17,33,23.20
2009,07,18,17,34,23.20
2009,07,18,17,35,23.20
2009,07,18,17,36,23.20
2009,07,18,17,37,23.20
2009,07,18,17,38,23.20
2009,07,18,17,39,23.20
2009,07,18,17,40,23.10
2009,07,18,17,41,23.10
2009,07,18,17,42,23.00
2009,07,18,17,43,23.00
2009,07,18,17,44,22.90
2009,07,18,17,45,22.90
2009,07,18,17,46,22.80
2009,07,18,17,47,22.90
2009,07,18,17,48,23.00
2009,07,18,17,49,23.00
2009,07,18,17,50,23.10
2009,07,18,17,51,23.10
2009,07,18,17,52,23.10
2009,07,18,17,53,23.20
2009,07,18,17,54,23.30
2009,07,18,17,55,23.30
2009,07,18,17,56,23.20
2009,07,18,17,57,23.20
2009,07,18,17,58,23.10
2009,07,18,17,59,23.10
2009,07,18,18,00,23.10
2009,07,18,18,01,23.10
2009,07,18,18,02,23.20
2009,07,18,18,03,23.20
2009,07,18,18,04,23.20
2009,07,18,18,05,23.20
2009,07,18,18,06,23.20
2009,07,18,18,07,23.30
2009,07,18,18,08,23.30
2009,07,18,18,09,23.40
2009,07,18,18,10,23.50
2009,07,18,18,11,23.70
2009,07,18,18,12,23.70
2009,07,18,18,13,23.70
2009,07,18,18,14,23.80
2009,07,18,18,15,23.80
2009,07,18,18,16,23.70
2009,07,18,18,17,23.70
2009,07,18,18,18,23.70
2009,07,18,18,19,23.80
2009,07,18,18,20,23.80
2009,07,18,18,21,23.70
2009,07,18,18,22,23.60
2009,07,18,18,23,23.50
2009,07,18,18,24,23.40
2009,07,18,18,25,23.40
2009,07,18,18,26,23.50
2009,07,18,18,27,23.50
2009,07,18,18,28,23.60
2009,07,18,18,29,23.70
2009,07,18,18,30,23.70
2009,07,18,18,31,23.80
2009,07,18,18,32,23.90
2009,07,18,18,33,24.00
2009,07,18,18,34,24.10
2009,07,18,18,35,24.20
2009,07,18,18,36,24.30
2009,07,18,18,37,24.30
2009,07,18,18,38,24.30
2009,07,18,18,39,24.30
2009,07,18,18,40,24.30
2009,07,18,18,41,24.30
2009,07,18,18,42,24.30
2009,07,18,18,43,24.30
2009,07,18,18,44,24.30
2009,07,18,18,45,24.30
2009,07,18,18,46,24.30
2009,07,18,18,47,24.30
